Wind_Speed
6 7 8 9 10 13 13 9 4 4 9 13 12 9 7 8 5 4 6 3 1 3 8 10 10 10 10 9 8 7 8 7 8 8 8 8 8 7 7 6 6 7 4 5 6 6 8 10 11 12 13 14 15 16 17 18 19 19 18 18 18 17 17 17 16 16 16 16 15 16 17 16 16 16 17 18 19 20 21 22 22 22 22 22 21 19
5 8 11 11 11 13 11 4 2 2 7 10 9 8 8 7 4 5 4 3 1 2 4 5 8 11 11 9 9 8 8 8 9 9 9 8 8 6 6 6 6 4 3 4 4 7 9 10 11 13 14 14 15 16 18 19 19 20 19 19 18 17 17 18 17 16 16 16 15 14 14 14 13 14 14 15 15 15 16 18 18 19 19 19 20 23
7 10 11 8 5 8 7 4 3 4 6 7 6 7 6 4 5 5 3 4 2 2 1 1 5 10 10 10 10 8 8 7 4 4 5 5 5 5 5 4 4 4 3 3 5 7 8 9 10 11 12 14 14 14 16 17 17 17 18 19 17 17 17 17 17 16 15 14 14 13 12 11 11 11 12 13 13 13 13 14 15 17 20 21 20 21
9 6 5 5 7 9 7 6 6 5 5 5 5 7 5 6 5 2 4 5 2 1 1 3 5 8 8 10 8 3 2 3 1 2 3 3 4 5 4 3 4 5 4 4 4 5 6 7 8 9 9 10 11 12 12 14 15 15 16 16 16 16 15 15 16 16 14 12 12 12 11 10 9 10 10 10 11 13 13 13 15 16 17 19 20 21
6 1 1 3 8 10 9 8 8 6 5 3 4 5 4 7 4 2 6 6 2 2 2 4 6 7 7 10 8 4 3 3 2 3 3 3 4 3 3 3 4 4 4 3 3 3 4 5 5 6 7 8 10 10 11 11 12 12 12 13 14 14 13 13 13 14 13 12 12 12 11 11 10 11 11 10 11 12 12 14 16 17 16 16 16 18
3 3 1 5 9 11 10 10 10 8 6 4 4 2 3 7 7 7 9 7 2 4 3 2 5 4 4 9 7 5 4 5 4 4 4 3 3 3 3 3 2 2 2 2 2 2 2 3 4 4 5 7 8 8 10 11 11 10 10 11 11 11 12 12 12 13 13 13 13 14 13 13 13 13 13 12 12 12 12 12 13 15 17 17 16 15
3 2 1 5 8 9 10 9 10 9 6 5 3 2 4 6 8 9 9 6 2 2 2 1 5 3 2 6 6 5 4 5 5 4 4 2 2 2 2 1 1 1 1 1 1 1 2 3 4 4 4 5 6 7 11 13 13 11 9 10 11 10 10 11 12 12 13 13 13 14 15 15 14 13 11 10 10 10 10 11 10 11 12 14 16 16
4 4 2 6 8 7 8 7 7 9 7 2 1 1 5 7 9 10 8 5 1 2 2 2 2 4 4 3 5 6 5 5 6 5 4 3 2 1 1 1 1 1 1 1 2 2 3 3 3 4 4 4 4 6 8 10 12 12 10 10 11 10 10 11 12 12 12 12 12 13 14 13 12 12 10 8 8 8 8 9 9 10 9 10 13 15
3 6 6 8 9 7 6 1 2 7 5 1 1 0 4 6 8 9 6 3 1 0 4 4 3 3 6 2 5 5 6 7 8 7 5 3 2 2 2 2 2 2 2 1 2 3 4 4 4 5 5 5 5 6 7 9 10 11 11 11 11 10 9 10 12 12 12 11 10 11 11 11 10 9 8 8 7 7 9 10 10 10 10 10 11 13
2 2 2 4 6 5 3 4 4 1 1 3 4 4 6 5 6 5 4 3 2 3 4 4 3 4 5 4 5 5 6 8 8 6 4 3 3 2 2 3 2 3 3 3 3 4 5 5 5 5 6 6 7 7 8 10 12 12 12 11 11 10 9 9 11 11 11 10 9 9 9 9 8 7 6 7 7 7 9 10 10 10 11 11 10 11
2 1 2 1 1 2 5 6 5 4 6 8 7 8 8 5 4 2 1 2 3 5 2 3 1 2 4 5 5 4 2 4 7 7 5 4 4 3 3 3 3 3 3 3 4 5 6 6 6 7 8 8 8 9 9 10 12 13 13 12 12 11 9 10 10 10 10 9 9 8 8 7 7 6 6 6 6 7 7 7 8 9 9 9 9 10
4 3 1 2 1 1 5 7 6 3 6 6 6 8 7 4 3 3 2 2 5 4 1 2 2 2 5 4 2 3 2 1 4 7 8 8 6 5 4 3 3 3 3 4 4 5 6 6 7 7 8 9 9 10 11 11 11 12 13 13 12 11 10 11 11 9 9 8 7 7 6 6 6 6 6 6 6 6 6 7 7 7 8 8 8 9
4 3 3 3 1 3 4 6 5 2 3 3 6 8 6 5 4 4 4 4 5 2 2 2 1 3 6 7 3 2 3 2 2 6 9 10 8 6 5 4 3 3 3 4 4 4 4 5 6 7 8 8 9 10 12 13 13 12 12 13 14 13 11 11 11 9 8 7 6 6 6 6 7 7 6 5 5 5 5 6 6 7 7 7 7 8
4 2 3 3 2 4 5 5 5 4 5 7 8 8 6 6 5 6 6 4 3 1 1 0 0 3 5 6 5 3 7 6 5 6 7 8 9 7 6 4 4 4 4 4 4 4 4 4 5 6 7 8 8 10 12 14 14 13 13 14 15 14 12 11 11 10 9 7 6 6 5 4 4 4 3 3 3 4 4 5 6 6 7 7 7 8
5 3 4 4 3 5 6 2 1 5 8 5 3 3 5 5 4 5 5 4 2 3 2 1 2 3 3 0 3 3 8 8 6 6 6 6 7 6 6 5 5 5 4 4 4 4 5 5 6 6 7 7 8 9 10 11 11 12 12 13 14 14 13 12 11 10 9 7 6 5 4 3 3 2 1 1 2 3 3 4 5 5 6 7 7 8
5 1 1 1 1 3 4 1 2 3 7 3 1 1 3 2 1 1 0 1 2 2 3 4 3 4 2 4 4 4 8 8 6 6 6 6 6 5 5 5 5 5 4 4 4 4 5 6 6 6 7 7 8 8 10 11 11 12 12 13 15 15 14 13 12 11 10 9 8 7 5 5 4 3 3 2 1 2 3 3 4 5 6 7 8 9
4 1 3 1 0 1 1 2 2 0 3 3 1 3 2 2 3 3 1 2 1 3 3 4 3 3 2 4 7 8 8 7 7 7 8 8 8 7 5 5 5 5 4 4 4 4 5 6 6 6 7 7 7 9 11 13 13 13 13 14 15 15 15 14 13 13 12 11 10 9 7 7 6 5 5 3 2 2 3 4 5 5 6 7 8 9
3 3 3 2 2 3 3 2 2 2 1 2 3 4 3 1 1 1 2 2 2 5 2 4 6 5 4 4 6 10 10 9 9 9 9 9 8 7 6 5 5 5 4 4 5 5 5 6 6 6 7 8 8 10 12 14 15 15 15 15 16 16 16 15 14 14 13 13 12 12 10 10 9 9 8 7 6 5 5 5 5 5 5 6 7 8
2 3 2 2 1 2 1 1 2 1 1 1 1 1 2 1 3 3 3 2 4 5 3 4 5 4 5 4 7 12 13 12 12 12 11 11 10 8 7 7 6 5 5 5 5 4 4 5 6 6 7 8 8 10 12 14 15 17 17 17 18 17 17 17 16 16 15 14 14 13 12 12 11 11 10 9 9 8 8 7 7 7 7 7 7 8
1 1 2 1 1 1 1 3 5 5 2 1 0 1 0 1 2 3 4 3 3 5 5 4 3 3 6 6 9 14 16 15 15 14 13 13 12 10 8 8 7 6 5 5 5 4 5 5 6 6 6 7 8 9 12 14 15 16 17 17 18 18 18 18 18 17 16 16 15 14 14 13 13 13 13 12 12 12 11 11 11 10 10 10 10 10
1 1 2 3 1 2 3 3 4 5 5 4 5 5 4 2 0 1 3 2 2 4 5 4 4 3 3 4 9 14 16 16 16 14 13 13 12 11 9 9 8 7 6 5 5 5 5 6 6 6 6 7 8 9 11 13 14 16 16 16 17 18 19 19 19 19 18 17 17 16 16 15 15 15 15 14 14 14 13 13 13 13 12 13 13 13
1 1 4 4 3 4 2 1 2 1 1 3 5 7 7 5 3 3 5 2 0 3 3 2 4 2 2 0 2 4 8 13 16 15 13 13 13 11 10 9 8 7 7 6 6 6 6 7 7 6 6 6 7 8 9 11 12 14 15 16 16 18 19 19 20 20 19 19 18 18 17 16 16 16 16 15 15 14 14 14 14 13 14 14 14 14
1 3 5 4 3 2 1 2 1 1 1 3 3 4 5 6 6 6 5 3 3 2 1 1 3 2 2 2 2 2 2 2 10 15 14 13 13 12 10 10 9 8 7 7 6 6 7 7 7 7 7 7 7 7 7 9 10 12 15 16 16 17 18 18 19 20 19 19 18 18 17 16 16 16 16 16 15 14 14 14 13 13 14 14 14 15
1 3 4 3 2 1 1 2 1 1 1 4 4 4 4 4 4 3 2 1 3 4 2 3 5 3 2 2 2 2 3 3 3 12 15 13 11 11 11 10 9 8 7 7 6 7 8 9 9 9 8 8 7 7 7 8 9 12 15 16 16 16 16 17 18 18 19 19 18 18 17 16 16 15 16 16 15 14 13 13 13 13 13 14 14 14
4 3 4 4 3 2 2 2 2 2 3 5 5 6 6 3 3 3 0 1 2 6 7 6 6 4 2 2 1 2 2 1 2 8 13 12 10 10 10 9 8 8 8 8 7 8 9 9 9 9 9 8 8 7 7 8 9 12 14 15 15 16 16 16 16 16 18 18 18 18 17 16 16 15 16 16 15 14 14 14 14 14 15 15 15 15
5 4 5 6 6 6 6 6 6 5 4 4 4 6 8 8 7 5 3 3 4 6 7 7 7 3 2 3 3 3 5 6 6 9 10 10 10 11 10 9 9 9 9 10 9 8 9 8 9 9 8 8 7 7 7 8 9 10 12 14 15 15 16 16 16 16 17 17 17 17 17 16 16 16 16 16 16 16 16 16 16 17 17 17 17 18
3 2 6 9 8 8 9 7 7 7 7 8 10 11 12 12 11 7 3 5 7 5 5 8 9 6 3 5 6 5 7 9 9 10 10 9 10 10 9 9 9 9 9 10 9 8 8 8 8 9 9 8 7 7 8 9 9 10 11 13 14 15 16 16 16 16 16 15 16 16 17 16 16 17 17 18 18 18 18 19 20 20 20 20 21 21
2 3 7 11 11 9 4 2 8 10 9 12 14 13 13 12 12 9 7 10 8 4 6 10 10 11 10 8 8 7 8 9 10 12 12 11 10 9 9 9 9 9 9 9 9 9 9 8 9 10 9 8 8 8 9 10 11 12 12 13 13 13 15 16 16 16 14 13 14 16 17 17 17 18 18 19 19 20 20 20 21 21 21 22 22 22
3 6 9 10 12 8 2 4 7 10 10 11 11 11 12 12 13 13 12 14 10 7 11 12 12 14 14 8 9 10 10 11 12 13 12 11 10 9 10 10 10 11 10 10 10 10 10 9 9 10 10 9 9 8 8 9 10 11 11 12 12 13 14 15 15 14 13 13 15 17 17 18 18 18 18 19 19 19 20 20 21 21 22 22 22 23
3 6 7 9 12 8 4 4 3 6 7 8 9 11 13 13 15 15 13 16 15 13 14 12 7 10 12 9 8 8 9 9 8 8 9 10 11 10 11 12 12 12 11 11 11 10 10 10 10 11 10 9 9 9 9 8 8 10 11 12 12 12 13 14 14 13 12 14 15 16 17 17 17 17 17 18 19 19 20 21 22 23 23 24 24 24
2 3 4 5 7 5 4 3 1 2 4 5 5 8 12 12 14 14 13 15 15 15 16 12 7 8 9 7 4 3 6 6 7 9 11 11 11 11 13 13 13 13 12 12 12 11 10 10 10 11 10 9 9 9 9 9 10 11 12 12 11 12 12 13 13 13 13 14 15 16 16 16 16 17 18 19 20 20 21 22 23 24 25 25 26 25
1 1 2 3 5 4 2 3 4 3 2 1 2 7 12 12 12 13 13 13 13 14 16 13 11 10 6 6 4 4 6 7 9 11 12 11 11 13 14 14 13 13 13 13 12 11 10 9 10 11 10 10 10 9 9 11 12 12 11 11 11 12 12 12 12 12 13 14 15 15 16 16 17 18 18 20 21 22 23 24 25 26 27 27 27 28
5 4 2 4 6 3 2 2 6 6 1 4 6 11 15 14 14 13 12 13 15 15 13 12 12 9 4 8 6 4 7 9 9 11 11 12 13 13 13 14 13 13 13 13 11 11 10 10 11 11 11 10 9 9 10 12 12 11 11 11 11 11 11 11 11 11 12 14 15 15 16 17 17 18 19 21 22 23 25 26 27 28 29 29 29 30
6 6 4 5 5 2 1 2 5 4 7 8 7 12 17 17 16 13 12 15 17 15 11 10 10 7 6 9 10 9 9 9 10 11 11 11 11 11 13 13 12 12 11 10 10 10 10 11 12 12 11 11 10 11 12 13 12 12 12 12 11 10 10 10 10 12 13 14 15 15 16 17 18 19 20 21 23 24 25 27 28 29 30 31 31 32
8 7 5 5 4 2 2 3 5 8 11 6 1 5 11 13 13 13 14 17 17 16 15 14 14 10 8 9 9 7 7 6 6 7 9 10 9 9 12 13 12 11 11 10 10 11 12 14 14 13 12 11 12 13 12 13 13 12 12 11 10 9 9 10 11 12 12 13 15 16 16 18 18 19 21 22 23 25 26 28 29 31 31 31 32 33
8 7 4 3 4 3 3 6 8 5 3 1 1 1 4 7 10 11 13 15 14 14 15 15 16 14 10 7 5 1 1 2 1 4 7 7 5 7 11 11 9 10 10 9 11 13 14 15 15 14 14 13 14 13 12 13 14 12 10 10 9 8 9 10 10 11 12 13 14 15 16 17 19 20 22 24 25 27 28 29 31 31 31 32 34 35
6 7 6 4 4 3 4 7 6 3 2 3 4 4 6 7 9 10 11 12 11 13 13 14 15 15 10 5 4 4 4 4 2 6 6 5 6 8 10 9 9 10 10 11 14 15 16 16 16 17 17 16 15 13 13 14 14 12 10 9 9 8 8 10 10 10 11 12 13 15 16 17 19 21 23 25 27 28 29 30 32 32 32 33 36 37
4 5 6 6 4 3 5 6 4 5 8 8 4 6 8 7 7 9 7 9 11 14 15 14 15 16 10 5 6 5 4 1 6 8 6 8 8 7 5 6 10 14 16 19 20 19 19 19 19 19 18 17 15 14 14 15 14 11 10 9 9 8 7 9 9 9 11 12 13 14 16 17 19 22 23 25 26 28 29 30 31 32 32 34 36 38
3 2 3 5 5 5 6 6 6 7 8 4 4 7 8 8 8 8 5 9 11 12 14 14 16 16 11 7 7 6 5 4 9 7 6 10 9 6 7 7 10 15 19 22 23 22 22 22 21 19 17 16 15 14 15 15 13 11 10 9 9 8 7 7 8 9 10 11 13 15 16 18 20 21 23 25 26 27 28 29 30 32 33 34 36 38
4 3 4 7 7 6 7 7 6 6 4 3 6 5 6 9 11 9 5 8 6 8 13 15 15 14 11 10 9 8 8 9 7 2 5 8 7 7 8 9 11 15 18 19 22 24 24 23 21 18 16 15 14 14 15 13 12 11 10 9 8 7 7 7 8 9 10 12 13 15 16 18 19 21 22 24 25 26 27 29 30 31 33 35 36 37
5 5 6 8 8 8 9 7 6 5 3 4 5 5 8 10 9 8 7 4 1 6 9 11 12 12 11 10 9 8 7 4 1 4 7 9 10 9 10 13 15 16 18 20 23 24 23 21 19 17 15 15 14 14 14 13 11 11 10 9 7 7 6 7 8 9 11 12 13 14 16 17 18 20 21 22 24 26 27 28 30 31 32 34 36 35
6 6 6 8 8 7 7 7 7 6 2 6 5 4 6 7 6 6 4 2 2 1 0 2 7 7 6 7 9 7 2 4 6 7 7 9 10 10 11 15 16 16 19 22 23 23 22 19 18 17 15 14 14 13 13 13 12 11 10 8 7 6 6 7 8 10 11 12 13 14 16 16 18 19 21 22 24 27 29 30 30 31 32 33 33 33
6 7 6 7 7 5 5 7 7 6 2 9 10 4 2 4 2 2 2 2 2 1 3 1 2 2 3 6 8 5 5 6 6 7 8 8 9 10 11 13 15 15 18 19 19 21 22 20 17 16 15 13 12 12 11 11 11 11 9 7 6 5 6 7 8 10 10 12 13 14 15 17 18 19 21 23 25 27 29 30 30 32 32 30 30 31
6 7 5 5 6 5 6 8 5 1 3 7 7 4 5 4 1 1 2 2 1 1 2 1 1 2 3 5 6 6 5 5 7 8 8 8 9 10 11 13 14 15 16 17 18 19 21 20 17 15 14 12 11 11 10 10 10 10 8 6 4 4 5 7 7 9 10 11 13 14 16 17 19 20 22 24 25 26 28 29 30 31 30 27 27 28
5 4 2 3 5 4 4 5 2 2 2 3 2 2 3 4 3 2 2 3 2 2 2 0 2 3 3 3 5 5 4 5 7 8 8 9 10 10 11 13 14 15 16 18 19 18 18 19 18 16 14 11 10 9 9 8 8 8 7 5 4 4 5 6 7 8 10 12 13 15 16 18 19 21 22 23 24 26 27 28 29 30 29 26 26 25
0 1 1 1 3 2 4 4 3 2 2 3 1 3 1 1 2 2 2 2 2 2 2 0 1 1 3 4 5 4 4 6 8 7 8 9 9 9 11 12 13 16 18 19 19 18 18 19 18 17 14 11 8 8 8 7 7 6 5 4 3 3 4 6 8 10 11 12 14 15 16 18 20 22 23 24 24 24 25 25 26 28 29 28 27 25
1 1 1 1 3 4 5 5 4 3 2 2 1 1 1 1 1 1 1 1 2 3 2 1 2 2 2 4 5 5 6 8 9 8 8 8 8 9 10 11 12 15 17 18 18 19 20 20 18 16 14 11 7 7 7 7 6 6 5 3 2 3 5 8 10 11 12 13 14 15 16 18 21 23 24 25 25 25 26 26 25 27 29 29 26 25
2 3 3 3 5 5 4 1 3 2 1 0 1 1 2 3 2 0 2 3 3 2 1 1 1 2 3 5 6 7 8 8 9 9 8 7 7 8 9 11 13 14 15 17 18 19 18 18 17 15 13 10 8 7 8 7 7 6 4 2 2 4 7 9 10 11 12 13 14 15 16 18 20 23 25 25 26 26 27 27 26 28 31 29 25 26
1 4 4 3 4 5 5 1 3 1 1 2 2 3 4 3 1 3 3 2 1 1 1 1 1 1 2 5 6 7 9 8 8 9 9 8 8 9 10 12 14 15 16 17 17 17 17 18 17 16 13 10 9 9 9 8 7 4 2 1 3 6 8 9 10 11 11 12 13 14 16 18 20 21 22 24 26 26 26 26 26 28 32 34 30 28
2 4 4 4 4 5 4 1 3 1 1 2 2 2 4 3 2 2 1 1 2 3 2 2 0 1 1 1 2 7 9 8 7 8 8 8 8 10 12 14 15 15 16 17 16 17 17 16 16 16 14 11 10 10 9 8 6 2 1 2 4 6 7 8 9 10 10 10 12 14 16 18 19 20 22 23 25 28 30 32 30 28 30 35 36 32
3 3 3 3 4 2 2 3 1 1 1 3 4 2 4 2 1 2 3 3 4 3 3 4 2 2 2 1 2 6 8 6 8 11 8 6 10 14 15 16 17 16 16 17 17 17 15 14 14 14 13 11 10 10 9 7 4 2 1 2 3 4 5 6 7 8 8 9 11 14 16 17 18 20 22 22 22 25 30 35 38 36 31 29 32 35
Wind_Direction
183 187 198 207 197 197 200 197 206 219 203 192 189 199 196 188 186 112 97 87 316 234 217 225 242 252 253 246 242 219 183 202 237 239 240 235 237 238 229 225 218 221 203 122 132 169 178 186 189 191 196 199 204 207 206 206 207 207 205 204 205 204 201 202 206 209 212 215 218 223 227 231 234 236 238 242 245 246 248 250 252 254 260 257 251 260
189 205 203 208 201 191 190 168 111 179 194 191 187 192 198 199 165 96 96 108 73 269 214 214 253 257 257 254 248 237 212 217 233 233 234 232 232 233 227 228 227 220 164 138 182 193 186 189 190 196 198 197 200 204 205 206 206 207 206 206 206 201 200 202 203 206 210 213 217 222 226 230 234 234 235 239 243 245 250 253 250 251 258 260 262 263
195 215 198 187 169 152 142 127 159 170 179 189 191 197 203 177 130 102 109 119 116 251 205 146 271 262 259 257 246 231 222 226 236 241 246 247 243 240 237 243 246 241 220 207 205 190 187 186 185 197 202 200 201 202 203 205 204 204 205 207 205 201 202 202 202 204 209 214 219 224 228 229 232 236 239 242 244 245 247 250 249 253 259 259 259 259
193 207 176 136 128 138 136 156 170 159 176 193 189 197 195 152 154 184 156 140 129 226 316 335 288 271 264 255 241 196 187 226 254 262 252 247 244 250 263 275 270 262 260 242 215 193 187 183 185 196 198 197 198 198 198 198 199 200 203 204 202 201 201 200 201 202 207 215 220 225 229 230 235 241 243 244 244 244 244 247 249 253 260 259 256 258
179 73 10 140 156 165 163 171 181 178 179 191 200 203 180 155 151 49 130 141 136 179 257 303 279 268 244 235 225 140 132 194 190 224 218 203 216 239 263 255 253 262 274 261 228 199 188 185 185 186 191 196 196 197 195 192 193 195 197 197 196 198 197 197 198 197 201 210 216 220 222 226 234 238 239 242 244 244 245 250 252 252 255 257 257 260
165 34 297 166 168 182 178 183 196 200 188 180 210 213 154 161 136 98 130 146 180 199 191 259 261 262 208 218 215 154 163 177 162 203 203 177 189 206 231 229 233 239 238 247 235 218 201 183 166 161 178 193 190 193 195 192 190 188 188 188 187 190 193 194 193 191 192 200 209 212 214 220 225 231 235 238 244 247 249 254 258 258 256 254 257 261
114 73 263 156 164 181 191 199 195 202 211 187 186 87 117 151 137 133 155 170 212 196 122 221 250 255 184 203 193 164 183 181 169 194 189 174 183 185 208 205 229 213 154 166 185 168 154 147 148 143 149 167 172 185 196 196 190 182 175 175 177 179 183 185 185 186 188 193 204 209 216 221 224 230 236 241 246 250 254 257 259 264 262 256 257 259
113 138 148 150 161 172 195 206 180 199 223 180 107 118 148 155 152 154 171 193 228 95 131 198 243 267 259 206 150 159 194 197 195 195 175 164 167 152 144 141 128 89 86 115 127 115 112 110 114 119 120 132 148 169 183 187 187 181 170 162 165 165 168 175 178 181 185 189 197 205 213 220 223 231 238 244 250 255 259 259 260 265 266 261 259 261
98 153 155 157 173 180 194 228 137 199 219 81 350 242 141 148 156 164 180 189 50 224 204 177 154 249 254 196 128 164 209 215 207 194 172 150 130 118 106 95 90 91 76 69 99 94 90 89 88 98 104 109 122 135 143 152 162 165 162 156 154 153 157 168 172 176 181 184 189 197 205 213 221 230 239 246 254 262 259 255 259 263 266 267 265 264
27 161 163 167 185 175 123 35 14 254 150 147 174 109 94 104 121 150 189 158 137 244 225 161 164 251 258 214 165 174 220 222 203 180 157 137 120 108 101 94 90 97 84 66 78 80 81 86 89 94 99 99 106 116 124 134 140 142 143 142 140 140 143 152 160 166 173 177 182 190 198 206 214 222 235 247 254 260 257 257 263 266 268 269 267 266
49 55 324 1 181 132 97 70 18 20 109 146 158 118 104 106 104 115 173 152 198 231 210 106 105 278 269 233 183 167 230 217 182 164 151 142 133 124 110 105 100 96 94 88 85 86 87 89 95 98 98 97 98 104 107 113 126 131 132 134 135 134 131 138 148 156 163 171 176 183 193 201 211 221 233 247 255 261 265 268 274 276 277 272 267 270
102 116 154 59 31 168 117 87 37 48 134 152 155 135 125 119 137 162 155 197 229 228 146 56 6 257 241 234 162 95 44 141 174 169 160 154 146 137 127 114 102 92 96 100 94 97 99 95 97 96 94 96 95 97 101 103 111 119 122 125 126 126 129 136 141 146 153 162 168 174 182 190 203 217 229 245 254 265 274 276 279 281 282 280 275 275
115 107 107 75 331 235 158 113 80 81 178 187 165 157 159 152 169 197 183 199 226 215 83 61 2 251 245 245 240 147 139 143 154 157 154 151 146 139 133 121 105 95 92 99 94 92 96 89 91 93 90 91 88 91 102 109 110 110 114 119 120 121 127 133 138 144 149 154 162 169 175 182 196 204 216 237 248 260 269 271 277 279 280 282 279 277
138 116 142 137 169 230 215 160 143 169 191 191 177 175 187 171 174 202 191 198 222 136 69 327 251 256 254 259 272 194 148 128 103 117 130 138 140 134 129 121 111 103 85 88 88 81 84 79 80 84 84 84 84 90 102 109 112 112 116 124 125 124 128 131 133 139 142 145 151 161 169 174 185 198 215 242 251 265 270 270 276 280 283 285 284 285
172 168 178 163 151 191 208 213 151 168 177 191 194 196 206 196 195 206 195 194 180 113 111 185 208 239 236 128 9 69 117 110 97 102 103 114 121 120 122 123 121 114 93 85 85 79 77 75 77 79 79 82 83 88 95 100 105 108 111 119 122 121 126 129 129 130 132 134 136 140 147 146 150 163 160 235 279 287 287 286 289 290 290 289 290 290
175 138 95 81 311 191 183 289 336 168 172 184 353 239 227 242 131 129 96 101 107 105 157 184 226 267 257 118 105 104 114 112 111 120 128 130 127 132 137 137 132 120 107 98 92 88 80 74 76 78 77 79 81 87 96 100 101 103 107 114 118 118 121 123 125 127 127 128 128 128 130 131 132 134 127 126 318 321 318 318 316 313 307 302 301 299
172 99 31 37 62 54 29 342 342 218 174 161 159 189 205 7 68 116 131 78 55 262 187 167 230 260 230 168 142 143 143 135 137 149 155 152 150 157 153 143 138 123 113 107 98 96 88 79 74 71 73 75 77 87 99 106 107 106 107 111 114 116 117 119 120 122 122 120 119 117 114 113 108 105 104 97 70 38 17 9 0 347 339 328 321 317
172 123 37 6 112 66 352 329 39 25 30 138 169 172 145 35 20 170 215 137 196 243 194 162 220 223 210 200 150 156 168 163 166 171 167 163 166 170 161 148 138 122 113 106 100 97 89 83 76 69 70 73 79 90 100 107 110 110 111 113 114 114 114 115 115 117 117 115 114 110 106 105 102 100 97 91 84 74 61 49 33 17 7 353 342 340
139 125 69 9 64 87 345 246 143 117 14 21 225 184 126 202 216 194 212 203 200 229 229 187 208 229 229 202 161 176 186 180 177 178 175 174 177 174 163 152 141 131 132 126 118 111 95 91 84 77 78 77 80 90 98 105 108 109 112 113 114 114 113 113 112 111 112 111 109 107 105 105 101 99 96 92 89 81 72 63 52 43 33 22 11 5
87 161 129 72 16 95 170 223 195 174 147 61 234 197 67 265 231 194 206 226 216 223 231 199 182 226 230 200 179 187 192 185 179 179 181 180 179 176 164 157 156 155 155 144 134 126 109 102 92 86 89 86 87 94 99 105 106 107 110 110 112 113 114 115 114 112 111 109 108 105 104 104 101 99 94 89 85 79 71 65 58 51 45 39 31 25
113 261 142 109 45 184 185 212 210 184 169 175 180 178 184 190 273 240 222 223 238 232 230 225 225 223 201 195 195 194 194 189 180 177 179 178 177 172 162 163 166 162 159 149 141 138 126 118 107 96 95 93 94 95 97 104 107 108 109 109 112 115 115 115 115 114 111 108 107 104 100 98 95 93 89 83 79 73 66 61 54 49 44 40 35 30
169 137 131 137 173 190 174 27 341 311 175 197 196 190 193 179 155 204 211 176 244 258 243 245 259 248 112 63 233 194 195 191 179 172 173 174 173 168 163 167 167 160 160 155 149 144 135 130 123 115 109 100 96 90 92 101 104 105 108 108 111 113 114 114 114 112 110 107 104 100 96 93 89 86 82 77 71 66 60 55 49 43 40 36 32 28
67 96 116 132 165 185 93 51 31 313 288 273 253 219 205 194 191 211 215 180 166 209 348 331 274 264 98 50 11 35 14 195 172 167 167 170 169 163 161 163 161 159 157 153 150 148 144 140 133 128 123 114 106 99 96 99 100 105 109 109 109 110 111 112 112 110 108 105 101 96 92 87 83 80 76 72 67 63 58 53 48 42 37 34 29 26
101 113 121 111 95 108 146 128 120 108 264 255 242 228 217 204 197 210 237 183 162 170 175 218 243 245 113 71 20 37 19 356 176 169 167 167 164 160 159 159 157 155 152 152 153 151 149 148 144 141 135 125 118 112 106 103 105 112 114 111 110 110 109 109 108 108 106 103 99 95 90 86 82 78 75 71 66 62 58 53 48 41 37 33 28 24
183 152 136 132 142 174 189 192 194 185 213 231 223 206 204 183 101 96 198 262 212 194 192 214 245 246 129 101 85 116 131 159 195 176 169 163 159 157 156 154 153 153 156 162 163 160 158 157 153 147 139 131 126 120 116 113 110 113 116 116 113 111 111 108 105 105 103 102 100 96 91 86 81 75 71 68 63 58 53 48 43 37 33 30 25 21
182 174 160 166 171 179 195 207 205 188 183 212 213 186 190 191 174 172 209 229 223 199 186 215 244 239 120 137 165 151 155 171 183 183 175 162 156 156 155 158 160 163 170 172 169 166 163 157 149 142 135 132 129 124 121 115 108 109 113 116 115 113 112 110 105 103 100 98 96 92 87 81 74 68 63 59 54 49 44 39 34 30 26 22 19 16
157 189 191 199 201 199 208 209 179 151 150 186 201 195 195 199 193 189 209 218 219 205 193 220 238 245 218 175 178 182 179 181 183 182 174 160 158 159 159 163 165 168 175 173 169 166 159 151 146 141 136 132 130 127 125 119 114 112 112 114 114 113 113 109 105 100 93 89 87 83 78 72 64 59 52 47 43 37 33 29 24 21 17 14 12 9
130 201 204 213 225 221 210 164 153 156 174 197 202 196 193 192 188 189 213 222 215 204 227 229 226 241 244 199 181 195 190 185 186 185 182 171 165 163 157 159 165 169 174 174 172 168 161 155 149 144 141 137 133 127 122 120 118 116 115 115 115 113 111 107 101 95 87 82 78 74 70 63 56 51 44 39 34 29 24 20 16 13 10 7 4 2
167 207 204 206 227 228 117 93 166 179 195 207 203 191 184 181 182 190 214 226 214 206 238 236 213 226 242 221 192 191 185 191 194 188 184 172 162 157 154 160 170 176 178 178 176 172 166 160 155 150 145 139 135 128 120 117 115 115 116 117 115 111 108 103 97 91 85 77 72 67 63 56 49 44 38 32 26 21 16 12 9 5 2 360 357 355
197 210 200 196 222 224 117 88 191 195 200 206 199 191 182 178 187 197 212 224 220 219 236 243 225 229 241 233 215 191 176 191 190 173 173 172 164 160 164 172 181 183 182 179 177 174 169 161 153 149 145 140 137 132 127 124 121 121 119 115 113 109 106 102 96 90 82 73 67 61 56 50 42 35 30 24 18 14 9 6 3 359 357 355 353 351
246 213 170 168 217 221 119 93 160 199 210 205 182 180 178 179 194 207 218 224 223 229 239 249 263 261 245 222 210 145 130 145 157 166 181 183 173 170 176 184 188 185 183 180 177 172 163 154 148 146 143 141 138 132 131 131 125 121 116 113 116 113 107 101 93 86 77 68 61 55 49 42 34 27 22 17 13 9 6 3 360 357 355 354 352 350
198 207 90 133 206 213 118 133 141 92 23 295 183 182 181 184 197 207 217 220 215 223 236 242 249 256 235 176 145 104 125 152 167 178 189 191 184 182 186 191 191 186 183 179 173 165 157 152 150 150 145 141 138 133 133 132 125 120 118 119 122 116 105 98 89 79 70 61 54 47 41 34 28 23 17 13 9 6 4 1 358 357 354 352 351 348
173 177 134 164 202 212 42 123 132 105 69 246 223 201 191 195 205 206 214 221 215 216 225 227 235 245 198 154 162 160 163 178 187 188 192 194 192 190 192 193 191 187 182 174 164 158 157 155 152 149 144 139 137 135 137 135 128 127 129 128 125 115 102 94 84 73 64 55 47 41 35 29 23 19 14 10 6 3 2 359 356 354 351 348 347 345
181 186 173 180 203 219 33 121 127 154 223 232 220 201 196 200 203 201 210 217 214 215 223 233 242 234 165 170 193 195 185 190 197 197 197 196 194 190 191 195 193 183 170 159 156 158 155 150 144 139 138 138 140 142 142 139 135 137 137 131 124 115 104 91 76 66 58 49 41 35 30 23 18 14 9 5 3 0 358 355 352 350 347 344 343 342
177 186 181 183 194 170 116 153 178 215 230 233 196 185 201 207 202 203 220 223 216 216 223 236 247 235 199 196 207 202 193 188 187 199 205 203 194 182 185 192 186 170 158 153 158 159 151 145 141 137 137 140 144 144 142 142 141 139 137 134 128 117 100 85 70 59 53 44 35 28 24 18 13 9 5 1 359 357 354 351 348 346 344 342 340 338
178 179 170 166 170 144 141 183 207 235 238 176 72 121 199 205 197 207 231 233 221 216 218 226 238 238 223 204 192 164 99 93 98 235 220 201 184 179 190 193 172 158 159 155 153 151 146 144 143 141 141 145 148 145 143 147 144 139 140 141 134 117 93 79 65 53 47 39 28 22 18 12 8 5 1 359 356 353 350 348 345 343 342 339 337 336
190 179 172 176 177 169 181 198 220 306 316 218 210 193 185 184 181 196 232 243 223 212 216 224 233 238 227 180 125 85 66 59 302 252 216 179 180 192 196 188 161 153 149 136 136 139 138 139 140 143 146 148 148 146 146 149 146 145 150 142 125 111 89 72 60 47 41 31 21 16 12 8 4 1 358 355 352 349 347 345 343 342 340 338 336 335
215 198 190 194 193 188 204 211 218 244 246 236 200 163 168 175 171 175 213 252 233 211 209 216 227 233 224 157 115 108 94 93 254 242 195 177 190 185 162 148 146 147 142 137 135 134 134 138 142 145 148 147 144 146 148 149 151 154 151 133 118 110 89 67 52 40 33 23 15 12 8 4 1 358 354 351 348 346 344 343 341 340 339 337 335 333
217 248 213 204 197 185 203 217 209 219 240 235 147 149 165 164 148 141 188 256 245 212 201 210 224 231 219 171 145 144 144 206 241 235 177 173 181 156 125 119 121 127 134 140 140 136 137 142 143 142 143 142 142 147 150 151 157 158 145 127 118 107 82 59 41 30 24 16 10 8 4 360 356 352 348 346 345 343 342 341 339 338 336 335 333 331
187 203 206 212 209 194 201 221 225 232 243 166 141 152 160 147 133 135 197 258 243 184 189 208 219 223 209 179 163 170 194 219 239 242 128 138 132 118 120 122 121 123 126 132 136 137 139 141 140 138 139 142 146 152 154 154 153 147 135 122 112 92 65 43 29 21 15 9 6 3 358 353 350 347 344 343 341 340 340 339 337 336 334 333 332 330
179 191 200 212 215 207 206 220 242 246 215 149 143 144 142 140 146 174 209 255 152 160 184 198 204 210 205 183 174 189 209 215 131 90 105 113 111 110 112 113 117 120 123 128 134 136 136 137 138 138 140 148 153 155 157 154 141 129 124 116 100 73 46 28 19 12 7 3 359 355 352 348 345 344 342 341 339 338 338 339 337 335 334 332 330 328
174 186 202 206 211 218 216 220 244 253 200 123 113 119 145 158 183 201 203 357 16 113 119 180 194 204 194 178 188 199 167 87 96 111 115 116 120 121 118 116 115 115 123 132 136 137 136 136 139 141 144 152 156 151 150 147 133 122 118 109 85 53 31 18 9 3 360 357 354 350 349 345 343 342 340 341 341 339 337 337 336 333 332 331 328 325
170 174 193 200 200 208 211 211 229 250 178 123 114 111 209 208 196 167 128 48 356 37 47 32 207 174 153 179 193 177 111 100 117 120 114 116 121 122 125 126 123 122 128 133 137 142 142 138 137 142 147 151 151 144 141 137 128 121 114 95 67 38 19 6 360 358 355 353 351 348 345 343 342 343 343 343 342 340 337 336 333 331 331 330 326 323
173 174 185 199 195 188 198 207 211 205 169 154 137 159 201 185 78 33 119 95 48 98 83 359 265 190 187 194 179 151 125 125 133 128 123 124 124 126 129 128 127 128 130 133 139 145 145 142 139 141 145 147 143 137 135 132 125 119 106 81 55 27 10 359 356 356 352 349 348 345 343 343 343 344 344 344 341 338 336 334 332 331 329 327 323 320
192 189 183 190 193 193 207 211 177 79 198 206 55 57 171 149 92 36 74 82 92 146 130 184 245 209 201 180 152 147 144 141 140 138 135 132 132 135 134 131 131 131 132 136 141 145 146 146 144 141 139 139 138 133 130 126 119 110 96 75 47 17 3 357 355 354 349 346 346 345 344 344 345 344 343 342 340 338 335 334 331 329 326 323 319 315
309 266 327 161 171 222 253 219 155 91 264 259 35 59 64 69 68 54 47 61 82 111 125 247 287 186 180 177 161 152 147 141 137 133 132 134 135 133 129 125 127 132 137 141 144 147 148 146 144 142 136 132 135 133 123 117 115 107 94 75 41 13 3 359 356 353 349 346 346 346 347 346 345 344 342 340 339 336 332 329 326 323 321 319 316 311
304 176 179 188 170 194 232 220 168 146 220 253 246 108 67 295 275 354 355 23 50 47 38 17 29 62 151 185 171 149 140 139 137 135 138 138 136 136 134 130 130 137 144 147 148 151 151 148 144 142 135 129 129 129 122 118 114 106 97 84 36 12 5 360 356 352 349 348 346 346 346 345 342 342 341 339 336 332 328 325 322 318 315 313 311 308
192 152 160 210 204 206 235 212 92 96 152 87 338 271 239 237 226 96 37 33 40 41 45 67 89 132 166 187 176 148 142 150 150 147 147 146 142 143 141 137 137 141 145 149 152 152 151 148 145 141 137 135 134 134 131 122 111 109 111 102 20 5 3 359 355 352 349 348 347 346 343 341 339 338 337 335 332 329 325 322 319 315 311 308 303 300
143 154 161 183 204 240 262 214 106 92 239 185 197 247 262 279 10 78 72 49 34 185 161 157 230 238 187 190 177 153 152 163 159 148 149 152 150 148 144 141 142 145 147 149 152 152 150 149 147 144 143 144 143 141 135 124 118 124 125 60 9 0 359 355 351 350 350 348 346 342 337 335 335 334 332 331 328 324 320 317 315 312 309 308 304 296
180 185 174 170 198 237 262 182 135 193 240 135 86 321 300 316 42 77 116 197 223 223 187 166 210 339 332 271 171 160 163 163 153 147 147 150 150 146 143 141 140 144 149 151 151 152 151 149 149 148 147 147 147 143 135 129 133 139 69 21 2 351 349 349 348 350 350 344 336 333 331 330 331 332 331 328 325 323 322 321 319 312 305 308 311 305
210 206 185 197 219 216 66 62 53 1 51 91 82 5 326 336 167 222 231 210 205 204 182 177 183 184 195 243 203 179 171 151 147 149 137 126 141 145 146 149 148 148 153 156 154 152 150 149 150 151 148 147 148 145 140 143 148 137 23 351 344 338 336 346 354 349 335 323 322 327 331 330 328 328 328 326 324 323 323 322 321 318 312 308 311 312
Height
788 798 802 798 794 791 787 786 788 786 786 791 796 800 804 806 809 812 819 822 818 817 814 809 810 808 804 802 799 799 802 806 805 805 805 805 805 805 805 806 806 807 807 808 811 812 813 814 815 817 818 820 822 823 825 826 827 829 831 832 834 835 837 839 841 842 844 845 846 848 849 849 850 851 852 852 852 853 854 855 856 856 857 857 857 858
791 799 797 790 785 784 785 787 790 789 788 791 795 800 802 803 809 816 820 821 821 820 811 808 812 809 804 802 798 797 800 803 802 802 803 802 802 803 804 806 806 806 807 808 810 811 812 813 813 815 816 817 819 820 822 823 824 826 828 829 831 833 834 836 838 840 841 843 844 846 847 848 849 849 850 850 851 852 852 853 854 854 855 855 855 855
800 796 788 784 782 783 787 789 790 792 792 794 796 801 804 804 812 820 822 822 822 821 813 813 817 809 801 798 795 795 797 798 798 800 802 802 803 804 804 805 806 806 807 808 808 809 810 811 812 813 814 815 817 818 819 820 822 824 825 827 829 830 832 833 835 837 839 841 843 844 845 846 847 848 849 849 850 850 850 851 851 852 852 852 853 853
801 794 787 786 784 787 792 791 791 794 795 796 797 802 807 807 811 816 821 824 823 823 820 818 818 809 800 797 793 795 798 798 801 803 803 805 806 805 805 806 807 807 808 807 807 808 809 810 811 812 813 813 815 816 817 819 820 822 823 825 827 829 830 832 833 835 837 840 841 843 844 845 846 846 847 847 848 848 848 849 849 849 849 850 850 850
795 797 795 789 786 789 794 795 794 796 799 801 799 801 806 808 811 813 818 823 822 825 823 820 820 808 797 796 794 796 801 801 802 803 803 805 806 806 806 806 807 807 808 808 807 807 808 809 810 811 812 812 813 815 815 817 818 820 822 823 825 827 829 830 832 833 836 838 840 841 843 844 844 844 845 845 846 846 846 846 847 847 847 848 848 848
792 803 801 792 789 789 794 797 795 794 799 804 803 800 800 804 810 817 819 821 823 825 822 822 826 810 792 792 794 795 800 800 801 802 801 803 804 805 806 805 806 807 808 808 807 808 808 808 810 810 811 811 812 813 814 815 817 818 820 822 824 826 827 829 830 832 834 835 837 839 840 841 842 842 842 843 844 844 845 845 845 845 846 846 846 847
797 806 801 794 793 793 796 797 793 793 797 804 805 801 799 801 809 817 818 818 822 825 824 824 827 816 797 791 792 794 797 798 800 801 800 802 802 803 804 804 805 806 806 807 807 807 808 808 809 809 810 811 811 812 812 813 815 817 819 820 822 824 826 827 829 830 832 833 835 836 838 839 840 840 841 842 842 843 843 844 844 844 844 845 845 845
800 806 802 796 796 798 799 797 793 792 796 805 809 805 801 803 810 815 814 816 819 822 826 823 822 823 812 796 792 795 797 798 798 799 800 801 802 802 804 805 805 806 806 806 807 807 807 808 808 809 809 810 810 810 811 812 813 815 817 819 820 822 824 825 827 828 830 831 833 835 836 837 838 839 840 841 841 842 842 842 843 843 843 843 843 843
799 802 801 797 798 799 800 802 798 793 798 812 816 808 802 804 807 809 812 816 818 822 826 822 821 828 818 798 795 797 798 799 797 797 800 801 803 803 804 805 805 806 807 806 806 807 807 808 808 809 809 809 809 810 811 811 813 814 816 818 819 821 823 824 825 827 828 830 832 833 835 836 837 838 839 840 840 840 841 841 842 842 842 842 842 842
804 804 801 797 796 798 805 812 808 799 802 813 815 807 805 808 808 810 813 816 823 827 827 824 824 829 817 796 796 803 800 796 794 795 799 802 804 805 805 806 806 806 807 807 807 808 808 809 809 809 809 809 809 810 810 811 812 813 815 817 819 820 822 823 824 826 828 829 831 833 834 835 836 837 838 839 839 839 840 840 840 840 840 840 840 840
807 806 805 804 803 804 809 814 814 808 805 810 810 807 811 813 812 815 814 815 828 833 831 834 832 831 824 797 787 798 797 789 790 796 801 802 804 806 806 806 806 806 808 808 808 809 809 810 810 810 810 810 810 810 811 811 812 813 815 816 818 819 820 822 824 826 827 829 830 832 833 834 836 837 837 838 838 839 839 839 839 839 839 839 839 839
807 806 807 809 811 809 806 809 814 813 808 809 806 807 818 823 821 823 823 826 835 835 835 842 839 837 832 803 784 791 792 786 788 794 799 802 804 805 806 806 806 807 808 808 809 810 810 811 811 811 811 811 811 811 811 812 813 814 815 816 817 818 820 821 823 825 826 828 829 831 832 833 835 836 837 837 838 838 838 838 838 838 838 838 838 838
806 807 807 811 814 809 803 807 816 816 811 808 804 809 822 830 834 835 834 834 834 836 842 845 843 840 825 798 786 790 791 789 789 790 795 799 802 804 806 807 807 808 808 809 810 811 811 812 812 813 812 812 812 812 812 813 814 815 816 817 818 818 820 821 822 824 825 827 828 829 831 832 833 834 835 836 836 837 837 837 837 837 837 837 837 837
807 810 809 810 811 806 801 804 815 818 811 806 804 809 818 827 840 843 836 833 833 840 847 844 842 837 816 793 787 788 789 791 792 792 796 797 800 804 805 807 808 809 810 810 811 812 813 813 814 814 814 814 814 813 814 814 815 816 817 818 818 819 820 821 822 823 824 826 827 828 829 831 832 833 834 834 835 835 836 836 836 836 837 836 836 836
805 809 807 807 807 803 802 802 805 805 805 805 800 803 809 813 823 829 826 826 831 840 849 851 841 823 807 799 793 790 791 794 797 798 800 800 802 805 806 808 809 809 811 812 812 813 814 815 815 815 815 815 815 815 815 816 816 817 818 818 819 819 820 821 822 823 825 826 827 828 829 830 831 832 833 834 834 835 835 835 835 836 836 836 836 835
796 805 807 811 810 804 805 805 801 800 806 809 803 805 810 803 806 824 834 830 832 837 841 845 832 804 793 795 794 795 797 797 800 801 802 804 805 806 807 808 808 810 812 813 814 815 815 816 816 817 817 817 817 817 817 817 818 818 819 819 820 820 821 822 823 824 825 826 827 828 829 830 831 832 832 833 834 834 834 835 835 835 835 835 835 834
793 806 813 814 812 810 810 810 805 804 808 810 810 812 811 804 807 827 842 839 837 832 823 825 821 800 792 794 792 796 799 799 802 802 802 804 805 807 808 808 809 811 812 814 815 815 816 817 817 818 818 819 819 819 818 818 819 819 820 820 821 821 822 823 824 824 825 826 827 828 829 830 830 831 832 833 833 834 834 834 834 834 835 834 834 834
788 808 817 812 812 815 814 812 808 807 809 810 813 810 805 810 810 812 825 835 836 829 816 815 815 804 800 800 796 796 800 800 801 801 802 804 805 807 807 809 811 812 814 815 815 817 817 818 819 819 819 820 820 820 820 820 820 820 821 821 822 822 823 824 824 825 826 827 827 828 829 830 831 831 832 833 833 834 834 834 834 834 834 834 834 833
781 803 819 817 815 815 813 812 811 810 809 808 808 803 803 815 816 811 821 829 830 828 819 814 814 808 800 797 796 797 797 797 799 800 801 803 805 806 807 809 812 813 815 815 816 817 818 819 820 820 821 821 821 821 821 821 821 821 822 822 822 823 824 824 825 826 827 828 828 829 830 830 831 832 832 833 833 834 834 834 834 834 834 834 833 833
779 793 813 819 815 814 813 811 811 811 811 810 808 806 807 812 810 809 811 811 817 823 818 816 819 809 791 783 785 789 787 788 793 797 798 800 802 803 806 809 811 813 814 815 816 817 818 819 820 821 822 822 822 823 823 823 823 823 823 823 824 824 825 825 826 827 828 829 829 830 831 831 832 832 833 833 834 834 834 834 834 834 834 834 833 833
779 786 804 819 818 815 813 810 807 805 807 809 809 810 812 810 810 809 804 801 809 814 809 814 817 797 777 772 773 775 777 780 786 791 794 797 799 800 805 808 810 812 813 815 816 817 819 820 821 822 823 823 823 824 824 824 824 824 825 825 825 825 826 826 827 828 828 829 830 831 832 833 833 833 833 834 834 834 834 835 834 834 834 834 833 833
780 785 801 818 819 813 810 809 811 810 808 805 803 802 803 805 811 815 813 809 810 810 805 811 812 790 774 776 773 770 773 773 778 786 790 793 796 799 803 806 808 811 813 815 816 817 819 820 821 823 823 824 825 825 826 826 826 826 826 827 827 827 827 827 828 828 829 830 831 832 833 834 834 834 834 834 834 834 835 835 835 835 834 834 834 833
778 786 801 814 813 811 811 814 819 819 814 807 803 799 795 798 803 808 813 811 812 817 812 812 814 794 780 785 783 779 780 776 777 783 787 791 794 798 802 805 808 811 812 815 816 818 820 821 822 823 824 825 826 826 827 827 827 828 827 828 828 829 829 829 829 829 830 830 831 832 834 834 835 835 835 835 835 835 835 835 835 835 835 834 833 833
778 785 800 811 811 810 810 813 816 818 815 808 804 801 798 797 797 799 804 802 808 816 812 814 816 796 783 791 791 789 791 786 782 781 784 790 793 797 802 805 808 811 813 816 817 819 820 821 822 823 824 825 826 827 828 828 828 829 828 829 829 830 831 831 831 831 831 831 831 832 834 835 836 836 835 835 835 836 836 836 836 836 835 834 833 832
776 780 792 807 814 813 813 814 814 815 814 805 798 799 799 798 801 805 805 801 805 807 802 809 809 789 783 794 795 793 794 790 787 784 783 788 792 796 802 805 809 812 814 816 818 819 820 821 822 823 824 825 826 827 828 829 829 829 829 830 830 830 832 832 833 833 833 832 831 832 834 835 836 836 836 836 836 836 836 836 836 835 835 834 833 832
771 775 780 793 805 809 808 805 799 798 804 803 798 799 799 798 800 802 803 806 808 803 799 803 796 781 784 792 791 791 791 790 789 786 785 788 791 795 801 804 808 811 813 815 816 818 819 820 821 822 823 825 826 827 828 829 829 829 830 830 830 831 832 832 833 834 834 834 832 832 833 835 836 836 836 836 836 836 835 835 835 834 834 833 832 832
771 773 772 776 781 782 781 778 773 777 790 797 796 797 797 796 796 797 802 804 801 799 801 796 786 781 784 786 786 788 787 787 788 787 787 789 791 795 799 803 806 809 811 813 815 817 818 819 821 822 823 824 825 827 827 828 829 829 830 830 831 832 832 832 833 834 835 836 834 833 833 834 835 835 835 835 835 835 834 834 834 833 833 832 831 831
771 775 772 770 768 765 766 768 767 771 781 784 786 791 793 795 797 800 802 795 789 798 802 788 782 785 781 776 781 783 782 784 785 785 785 786 789 794 798 802 806 808 810 812 813 816 817 818 820 821 823 824 825 826 827 827 828 829 830 831 832 832 832 832 833 834 836 837 835 833 832 833 834 834 835 835 834 834 834 833 833 833 832 832 830 830
768 772 769 769 769 765 766 771 769 769 773 775 779 786 790 794 798 800 798 788 785 795 792 777 778 783 775 770 773 774 776 779 778 779 781 783 788 793 797 802 805 806 809 810 812 814 815 817 818 820 822 823 824 826 826 827 829 829 831 831 832 832 832 832 833 834 837 837 835 833 832 832 834 834 835 835 834 834 834 833 833 832 832 831 830 829
766 766 765 767 770 768 772 777 774 771 773 774 777 781 786 792 794 794 792 785 782 785 779 772 776 777 769 765 766 766 770 773 773 778 781 783 788 792 796 800 801 803 806 808 810 812 813 815 817 818 821 822 823 825 826 828 829 829 830 830 831 832 832 832 834 835 836 836 834 833 832 832 833 834 834 834 834 834 833 833 832 831 830 830 828 827
768 767 766 768 773 774 777 782 781 779 777 777 779 780 783 790 793 792 788 783 783 784 777 776 781 777 765 761 763 766 769 772 775 779 781 783 786 790 793 796 797 799 802 804 807 809 811 814 816 817 820 821 822 824 825 827 828 828 829 830 830 832 832 833 834 835 835 834 833 832 831 832 833 833 833 833 833 833 832 831 831 829 829 827 826 825
770 772 771 772 776 777 782 786 786 785 784 785 786 785 784 787 788 787 782 779 782 784 782 784 786 775 761 759 766 770 772 774 776 778 779 781 783 787 789 791 793 795 798 800 803 806 809 812 814 816 819 820 821 823 824 825 825 826 828 829 831 832 832 833 834 834 834 833 832 831 831 831 832 832 832 832 832 831 830 830 829 827 826 825 824 823
768 770 772 775 774 779 792 795 787 788 793 790 783 778 778 779 777 778 778 775 775 776 780 783 776 764 757 760 767 771 772 774 775 774 776 777 779 783 785 787 789 791 794 797 800 804 807 810 813 815 817 819 820 821 822 823 824 826 828 829 831 832 832 833 833 833 832 831 831 830 830 831 831 831 831 831 830 830 829 828 827 826 824 823 822 821
766 765 769 771 770 784 804 799 787 793 794 778 764 761 765 767 769 773 775 770 768 767 768 766 760 756 759 761 763 766 767 768 769 768 769 771 774 779 782 784 786 788 791 795 799 802 805 808 811 814 815 818 819 820 821 823 824 826 828 829 831 831 832 833 832 832 831 830 830 830 830 831 830 830 830 829 829 828 827 826 825 824 823 822 821 820
765 766 767 766 768 787 802 796 793 795 780 760 755 755 757 759 761 767 767 761 761 763 762 761 758 756 757 757 757 760 760 762 765 766 767 768 769 773 777 780 783 785 789 794 797 800 803 806 809 812 814 817 818 820 822 823 825 827 828 829 831 831 832 831 831 831 830 830 830 830 830 830 829 829 829 828 827 826 825 824 823 822 821 820 819 818
762 765 765 765 770 785 796 791 785 777 764 759 762 760 758 759 761 767 768 760 756 758 760 761 757 753 754 755 757 760 763 765 767 767 767 767 768 771 774 776 779 783 786 790 794 797 801 804 808 811 813 816 818 820 822 823 825 827 828 830 830 831 831 830 830 830 829 829 829 829 829 829 828 828 827 826 825 824 824 823 822 821 819 818 817 815
758 759 762 767 770 776 783 780 771 766 764 762 759 755 755 754 755 762 766 758 751 753 755 756 754 752 753 756 760 765 768 768 769 766 765 767 769 769 771 774 777 782 785 789 793 797 800 804 807 810 813 815 818 820 821 823 825 827 829 829 829 829 829 829 829 829 828 829 829 828 828 827 827 826 825 824 824 823 822 822 820 819 818 816 814 812
757 756 758 764 768 768 772 774 774 775 767 753 747 746 746 746 747 754 762 757 746 744 748 750 750 750 753 759 765 767 769 771 770 762 760 766 769 769 771 775 777 781 785 789 793 797 800 804 807 810 813 815 817 819 820 823 826 827 828 827 827 828 828 827 828 828 827 828 828 827 827 826 825 825 824 823 823 822 821 820 819 818 816 814 812 810
762 759 756 760 765 767 770 771 772 770 757 744 744 745 744 745 746 754 768 761 740 735 743 746 746 748 750 758 765 766 770 773 766 755 754 762 767 769 773 776 778 782 785 788 792 795 799 803 806 810 813 814 816 818 821 824 825 826 825 825 825 826 826 826 826 826 826 827 826 826 825 825 824 824 823 822 822 821 820 819 817 816 814 813 811 808
765 762 761 762 762 764 768 766 760 755 747 742 745 747 745 744 746 761 775 760 733 731 739 739 742 746 746 754 762 763 764 763 756 753 756 762 767 771 773 776 779 782 786 790 793 796 799 803 806 809 812 814 816 819 821 823 823 823 823 823 823 824 824 825 825 825 825 825 824 824 824 823 823 823 822 821 820 820 819 818 816 814 813 811 810 807
766 762 761 762 759 759 763 764 757 747 740 741 747 747 745 746 752 761 762 746 731 731 735 734 738 741 742 749 757 757 755 755 756 761 764 765 769 773 775 777 781 784 787 790 793 796 800 804 807 809 812 814 817 819 821 821 820 820 820 821 822 822 823 823 823 823 823 823 823 823 823 822 822 822 821 820 819 818 817 816 814 813 811 809 808 806
764 762 761 760 758 757 757 760 759 747 736 740 749 750 746 750 754 749 743 741 740 737 736 738 740 739 742 748 751 751 754 759 763 766 767 768 771 774 777 779 782 785 788 791 794 797 800 803 807 809 812 814 816 817 818 817 817 818 819 820 820 821 821 821 821 821 821 821 821 822 822 822 821 821 820 819 818 816 815 814 813 811 810 808 806 804
752 757 761 758 755 755 757 761 761 750 738 739 747 751 749 747 743 738 738 745 747 743 742 744 743 742 745 747 749 752 757 762 765 767 769 771 773 775 778 780 782 786 789 791 795 797 799 802 806 809 811 813 814 814 814 815 815 816 817 818 818 819 819 819 819 820 820 820 821 821 821 820 820 819 818 817 816 814 813 812 811 809 808 807 805 802
741 746 752 750 747 751 756 753 746 740 737 735 735 739 742 740 738 738 738 740 744 747 747 746 744 746 746 745 749 754 758 761 766 768 770 773 775 777 780 782 784 787 789 792 795 797 799 802 805 808 810 811 812 812 813 813 814 815 815 816 817 817 817 818 818 819 819 819 820 820 820 819 818 817 816 815 814 813 812 810 809 807 806 805 803 801
736 736 740 740 738 740 741 738 736 737 738 736 733 734 735 736 740 742 739 737 741 745 747 745 744 747 748 748 751 755 758 761 765 767 771 774 776 778 781 783 786 788 790 793 795 798 800 802 804 807 809 810 811 811 811 812 813 813 814 815 816 816 816 817 818 818 818 818 819 819 818 817 816 816 815 814 813 811 810 809 807 806 804 803 802 799
739 739 737 735 736 736 734 732 737 741 739 736 738 740 739 739 741 742 741 740 741 743 746 746 745 747 750 750 751 755 759 762 765 769 772 774 777 780 782 784 787 788 790 793 795 797 800 802 804 806 807 808 809 810 810 811 811 812 813 814 815 815 816 816 816 816 817 817 817 817 816 815 815 814 813 812 811 810 809 808 807 805 803 801 800 798
741 742 739 737 738 738 734 730 734 739 738 737 739 741 742 742 743 742 742 742 744 747 749 749 749 751 752 751 751 755 759 762 766 770 772 774 777 780 782 784 787 789 791 793 794 797 799 800 802 804 805 807 808 808 809 810 811 812 813 813 814 814 814 814 815 815 816 816 815 815 814 813 813 812 811 810 810 809 808 807 806 804 801 799 798 796
737 740 741 739 738 736 732 732 737 740 740 740 741 741 741 740 741 744 746 746 748 750 751 751 752 752 752 752 752 754 758 762 764 767 771 774 777 779 782 784 787 789 791 793 794 796 798 799 801 802 804 806 807 808 809 810 810 812 812 812 813 813 813 813 813 814 814 814 814 814 813 812 812 811 810 809 808 807 806 805 803 801 799 798 797 795
738 739 739 738 738 736 732 733 739 741 739 740 742 742 741 741 742 746 749 750 751 751 751 752 753 752 752 752 752 754 758 761 763 765 769 773 775 778 781 783 786 789 790 792 794 796 797 798 800 801 803 805 806 807 808 809 810 810 810 810 811 811 811 812 812 813 813 813 813 813 812 812 812 811 810 808 806 805 804 802 802 799 795 793 794 793
739 737 734 736 739 737 733 733 736 736 736 739 744 745 744 745 746 747 749 750 751 752 752 753 754 754 754 753 753 754 757 759 762 765 768 770 773 777 779 782 786 789 790 792 794 795 797 798 799 801 802 804 805 806 807 807 808 808 808 809 809 809 811 811 811 812 812 812 813 813 812 811 811 810 809 807 805 803 800 797 797 797 794 789 787 787
735 732 731 733 735 735 736 738 737 736 737 743 749 750 747 746 747 747 748 749 750 751 752 753 754 755 755 755 755 755 756 758 761 764 767 771 774 777 780 783 785 787 790 791 792 794 796 797 798 800 801 802 803 804 805 805 806 806 807 808 809 809 810 811 811 811 812 813 813 812 811 811 810 809 808 806 804 802 798 794 790 789 789 788 784 781